SR9WXG Weather Reports


time (UTC)temp
C
wind
direction
speed
KPH
gust
KPH
rain 1hr
cm
rain 24hr
cm
rain mn
cm
humidity
%
barometer
mb
20260507113010 0 0 3.2 4.8 0.00 0.00 0.00 100 941.7
20260507112610 0 0 8.0 14.5 0.00 0.00 0.00 100 941.6
20260507112210 0 0 6.4 12.9 0.00 0.00 0.00 100 941.7
20260507111808 0 0 8.0 14.5 0.00 0.00 0.00 100 941.7
20260507111408 0 0 9.7 12.9 0.00 0.00 0.00 100 941.6
20260507111008 0 0 6.4 9.7 0.00 0.00 0.00 100 941.7
20260507110608 0 0 6.4 11.3 0.00 0.00 0.00 100 941.7
20260507110208 0 0 8.0 12.9 0.00 0.00 0.00 100 941.6
20260507105806 0 0 8.0 16.1 0.00 0.00 0.00 100 941.6
20260507105406 0 0 6.4 9.7 0.00 0.00 0.00 100 941.6
20260507105005 0 0 6.4 9.7 0.00 0.00 0.00 100 941.6
20260507104606 0 0 9.7 16.1 0.00 0.00 0.00 100 941.6
20260507104205 0 0 8.0 12.9 0.00 0.00 0.00 100 941.6
20260507103803 0 0 6.4 9.7 0.00 0.00 0.00 100 941.6
20260507103403 0 0 6.4 9.7 0.00 0.00 0.00 100 941.5
20260507103004 0 0 6.4 12.9 0.00 0.00 0.00 100 941.5
20260507102603 0 0 6.4 9.7 0.00 0.00 0.00 100 941.6
20260507102203 0 0 8.0 12.9 0.00 0.00 0.00 100 941.6
20260507101801 0 0 6.4 8.0 0.00 0.00 0.00 100 941.6
20260507101401 0 0 6.4 11.3 0.00 0.00 0.00 100 941.7
20260507101001 0 0 6.4 9.7 0.00 0.00 0.00 100 941.6
20260507100600 0 0 9.7 19.3 0.00 0.00 0.00 100 941.6
20260507100200 0 0 6.4 12.9 0.00 0.00 0.00 100 941.5
20260507095758 0 0 4.8 8.0 0.00 0.00 0.00 100 941.5
20260507095358 0 0 6.4 11.3 0.00 0.00 0.00 100 941.5
20260507094958 0 0 9.7 14.5 0.00 0.00 0.00 100 941.5
20260507094551 0 0 11.3 19.3 0.00 0.00 0.00 100 941.5
20260507094149 0 0 4.8 6.4 0.00 0.00 0.00 100 941.5
20260507093746 0 0 4.8 9.7 0.00 0.00 0.00 100 941.6
20260507093345 0 0 4.8 6.4 0.00 0.00 0.00 100 941.5
20260507092944 0 0 4.8 9.7 0.00 0.00 0.00 100 941.5
20260507092544 0 0 8.0 12.9 0.00 0.00 0.00 100 941.4
20260507092144 0 0 6.4 9.7 0.00 0.00 0.00 100 941.4
20260507091743 0 0 8.0 17.7 0.00 0.00 0.00 100 941.3
20260507091343 0 0 6.4 9.7 0.00 0.00 0.00 100 941.3
20260507090942 0 0 4.8 9.7 0.00 0.00 0.00 100 941.3
20260507090542 0 0 4.8 8.0 0.00 0.00 0.00 100 941.2
20260507090142 0 0 6.4 11.3 0.00 0.00 0.00 100 941.1
20260507085740 0 0 8.0 17.7 0.00 0.00 0.00 100 941.0
20260507085340 0 0 9.7 16.1 0.00 0.00 0.00 100 940.9
20260507084939 0 0 11.3 20.9 0.00 0.00 0.00 100 940.9
20260507084539 0 0 12.9 24.1 0.00 0.00 0.00 100 940.7
20260507084140 0 0 9.7 19.3 0.00 0.00 0.00 100 940.8
20260507083738 0 0 9.7 19.3 0.00 0.00 0.00 100 940.8
20260507083338 0 0 11.3 17.7 0.00 0.00 0.00 100 940.8
20260507082937 0 0 9.7 24.1 0.00 0.00 0.00 100 940.7
20260507082537 0 0 11.3 19.3 0.00 0.00 0.00 100 940.7
20260507082137 0 0 12.9 25.7 0.00 0.00 0.00 100 940.7
20260507081735 0 0 12.9 25.7 0.00 0.00 0.00 100 940.7
20260507081335 0 0 11.3 16.1 0.00 0.00 0.00 100 940.7
20260507080935 0 0 11.3 20.9 0.00 0.00 0.00 100 940.6
20260507080535 0 0 12.9 22.5 0.00 0.00 0.00 100 940.6
20260507080135 0 0 14.5 22.5 0.00 0.00 0.00 100 940.5
20260507075733 0 0 9.7 17.7 0.00 0.00 0.00 100 940.4
20260507075333 0 0 11.3 22.5 0.00 0.00 0.00 100 940.3
20260507074933 0 0 9.7 20.9 0.00 0.00 0.00 100 940.4
20260507074532 0 0 12.9 22.5 0.00 0.00 0.00 100 940.4
20260507074132 0 0 9.7 16.1 0.00 0.00 0.00 100 940.3
20260507073730 0 0 11.3 19.3 0.00 0.00 0.00 100 940.3
20260507073330 0 0 6.4 11.3 0.00 0.00 0.00 100 940.4
20260507072930 0 0 6.4 11.3 0.00 0.00 0.00 100 940.3
20260507072522 0 0 3.2 9.7 0.00 0.00 0.00 100 940.4
20260507072121 0 0 8.0 12.9 0.00 0.00 0.00 100 940.3
20260507071718 0 0 6.4 8.0 0.00 0.00 0.00 100 940.3
20260507071317 0 0 6.4 12.9 0.00 0.00 0.00 100 940.4
20260507070916 0 0 4.8 8.0 0.00 0.00 0.00 100 940.5
20260507070516 0 0 6.4 8.0 0.00 0.00 0.00 100 940.5
20260507070116 0 0 4.8 9.7 0.00 0.00 0.00 100 940.4
20260507065714 0 0 3.2 6.4 0.00 0.00 0.00 100 940.4
20260507065314 0 0 8.0 14.5 0.00 0.00 0.00 100 940.3
20260507064914 0 0 3.2 8.0 0.00 0.00 0.00 100 940.3
20260507064514 0 0 8.0 12.9 0.00 0.00 0.00 100 940.2
20260507064114 0 0 6.4 19.3 0.00 0.00 0.00 100 940.3
20260507063712 0 0 6.4 9.7 0.00 0.00 0.00 100 940.3
20260507063312 0 0 3.2 6.4 0.00 0.00 0.00 100 940.4
20260507062911 0 0 6.4 11.3 0.00 0.00 0.00 100 940.4
20260507062511 0 0 9.7 16.1 0.00 0.00 0.00 100 940.4
20260507062111 0 0 9.7 12.9 0.00 0.00 0.00 100 940.4
20260507061709 0 0 14.5 20.9 0.00 0.00 0.00 100 940.4
20260507061309 0 0 11.3 20.9 0.00 0.00 0.00 100 940.4
20260507060909 0 0 11.3 19.3 0.00 0.00 0.00 100 940.5
20260507060509 0 0 14.5 27.4 0.00 0.00 0.00 100 940.4
20260507060109 0 0 11.3 19.3 0.00 0.00 0.00 100 940.4
20260507055707 0 0 9.7 16.1 0.00 0.00 0.00 100 940.5
20260507055307 0 0 8.0 12.9 0.00 0.00 0.00 100 940.5
20260507054907 0 0 3.2 6.4 0.00 0.00 0.00 100 940.5
20260507054506 0 0 4.8 11.3 0.00 0.00 0.00 100 940.5
20260507054106 0 0 6.4 14.5 0.00 0.00 0.00 100 940.4
20260507053704 0 0 4.8 9.7 0.00 0.00 0.00 100 940.3
20260507053304 0 0 8.0 16.1 0.00 0.00 0.00 100 940.3
20260507052904 0 0 12.9 22.5 0.00 0.00 0.00 100 940.2
20260507052504 0 0 11.3 17.7 0.00 0.00 0.00 100 940.3
20260507052104 0 0 4.8 12.9 0.00 0.00 0.00 100 940.4
20260507051702 0 0 4.8 14.5 0.00 0.00 0.00 100 940.4
20260507051302 0 0 6.4 12.9 0.00 0.00 0.00 100 940.6
20260507050902 0 0 1.6 6.4 0.00 0.00 0.00 100 940.7
20260507050213 0 0 4.8 9.7 0.00 0.00 0.00 100 940.7
20260507045813 0 0 8.0 14.5 0.00 0.00 0.00 100 940.7
20260507045413 0 0 6.4 9.7 0.00 0.00 0.00 100 940.7
20260507044742 0 0 11.3 16.1 0.00 0.00 0.00 100 940.5
20260506165521 0 0 12.9 16.1 0.00 0.00 0.00 100 938.4
20260506164555 0 0 9.7 17.7 0.00 0.00 0.00 100 938.3
20260506163506 0 0 9.7 11.3 0.00 0.00 0.00 100 938.3
20260506162642 0 0 9.7 17.7 0.00 0.00 0.00 100 938.1
20260506162240 0 0 11.3 12.9 0.00 0.00 0.00 100 938.1
20260506161841 0 0 8.0 16.1 0.00 0.00 0.00 100 938.1
20260506161440 0 0 8.0 12.9 0.00 0.00 0.00 100 938.1
20260506161040 0 0 8.0 14.5 0.00 0.00 0.00 100 938.1
20260506160640 0 0 6.4 14.5 0.00 0.00 0.00 100 938.0
20260506160238 0 0 9.7 14.5 0.00 0.00 0.00 100 938.1
20260506155838 0 0 11.3 19.3 0.00 0.00 0.00 100 938.1
20260506155437 0 0 8.0 11.3 0.00 0.00 0.00 100 938.1
20260506155037 0 0 9.7 12.9 0.00 0.00 0.00 100 938.2
20260506154637 0 0 11.3 17.7 0.00 0.00 0.00 100 938.2
20260506154235 0 0 12.9 20.9 0.00 0.00 0.00 100 938.2
20260506153836 0 0 8.0 14.5 0.00 0.00 0.00 100 938.4
20260506153436 0 0 9.7 14.5 0.00 0.00 0.00 100 938.4
20260506153035 0 0 8.0 12.9 0.00 0.00 0.00 100 938.5
20260506152635 0 0 8.0 14.5 0.00 0.00 0.00 100 938.5
20260506152233 0 0 9.7 19.3 0.00 0.00 0.00 100 938.4
20260506151833 0 0 12.9 19.3 0.00 0.00 0.00 100 938.3
20260506151433 0 0 9.7 17.7 0.00 0.00 0.00 100 938.4
20260506151032 0 0 8.0 12.9 0.00 0.00 0.00 100 938.4
20260506150632 0 0 9.7 14.5 0.00 0.00 0.00 100 938.4
20260506150230 0 0 11.3 19.3 0.00 0.00 0.00 100 938.5
20260506145831 0 0 8.0 12.9 0.00 0.00 0.00 100 938.5
20260506145431 0 0 9.7 14.5 0.00 0.00 0.00 100 819.2
20260506145023 0 0 14.5 24.1 0.00 0.00 0.00 100 938.4
20260506144621 0 0 11.3 14.5 0.00 0.00 0.00 100 938.4
20260506144218 0 0 8.0 14.5 0.00 0.00 0.00 100 938.5
20260506143817 0 0 12.9 19.3 0.00 0.00 0.00 100 938.4
20260506143416 0 0 14.5 20.9 0.00 0.00 0.00 100 938.3
20260506143017 0 0 11.3 19.3 0.00 0.00 0.00 100 938.4
20260506142617 0 0 8.0 32.2 0.00 0.00 0.00 100 938.3
20260506142215 0 0 9.7 17.7 0.00 0.00 0.00 100 938.4
20260506141815 0 0 11.3 19.3 0.00 0.00 0.00 100 938.5
20260506141414 0 0 11.3 17.7 0.00 0.00 0.00 100 938.5
20260506141014 0 0 8.0 14.5 0.00 0.00 0.00 100 938.6
20260506140614 0 0 8.0 16.1 0.00 0.00 0.00 100 938.6
20260506140212 0 0 9.7 20.9 0.00 0.00 0.00 100 938.5
20260506135812 0 0 12.9 19.3 0.00 0.00 0.00 100 938.5
20260506135411 0 0 9.7 14.5 0.00 0.00 0.00 100 938.5
20260506135012 0 0 6.4 11.3 0.00 0.00 0.00 100 938.6
20260506134612 0 0 11.3 19.3 0.00 0.00 0.00 100 938.6
20260506134210 0 0 8.0 16.1 0.00 0.00 0.00 100 938.6
20260506133810 0 0 8.0 16.1 0.00 0.00 0.00 100 938.6
20260506133409 0 0 11.3 14.5 0.00 0.00 0.00 100 938.6
20260506133009 0 0 11.3 16.1 0.00 0.00 0.00 100 938.4
20260506132609 0 0 11.3 16.1 0.00 0.00 0.00 100 938.4
20260506132207 0 0 9.7 12.9 0.00 0.00 0.00 100 938.5
20260506131807 0 0 11.3 14.5 0.00 0.00 0.00 100 938.5
20260506131407 0 0 11.3 16.1 0.00 0.00 0.00 100 938.4
20260506131007 0 0 9.7 16.1 0.00 0.00 0.00 100 938.4
20260506130607 0 0 9.7 12.9 0.00 0.00 0.00 100 938.4
20260506130205 0 0 9.7 12.9 0.00 0.00 0.00 100 938.5
20260506125805 0 0 11.3 24.1 0.00 0.00 0.00 100 938.5
20260506125405 0 0 9.7 17.7 0.00 0.00 0.00 100 938.6
20260506125004 0 0 8.0 16.1 0.00 0.00 0.00 100 938.6
20260506124604 0 0 9.7 16.1 0.00 0.00 0.00 100 938.6
20260506124202 0 0 12.9 19.3 0.00 0.00 0.00 100 938.6
20260506123802 0 0 9.7 14.5 0.00 0.00 0.00 100 938.6
20260506122954 0 0 9.7 16.1 0.00 0.00 0.00 100 938.5
20260506122553 0 0 12.9 20.9 0.00 0.00 0.00 100 938.4
20260506122150 0 0 12.9 19.3 0.00 0.00 0.00 100 938.5
20260506121749 0 0 12.9 19.3 0.00 0.00 0.00 100 938.5
20260506121348 0 0 11.3 19.3 0.00 0.00 0.00 100 938.4
20260506120948 0 0 11.3 16.1 0.00 0.00 0.00 100 938.5
20260506120548 0 0 9.7 16.1 0.00 0.00 0.00 100 938.6
20260506120146 0 0 14.5 27.4 0.00 0.00 0.00 100 938.5
20260506115746 0 0 12.9 35.4 0.00 0.00 0.00 100 938.5
20260506115346 0 0 14.5 27.4 0.00 0.00 0.00 100 938.6
20260506114946 0 0 11.3 16.1 0.00 0.00 0.00 100 938.5
20260506114546 0 0 12.9 24.1 0.00 0.00 0.00 100 938.5
20260506114144 0 0 12.9 25.7 0.00 0.00 0.00 100 938.4
20260506113744 0 0 12.9 16.1 0.00 0.00 0.00 100 938.5
20260506113343 0 0 14.5 22.5 0.00 0.00 0.00 100 938.5